GW2924 Weather Reports


Display with metric or nautical units.
time (UTC)temp
F
wind
direction
speed
MPH
gust
MPH
rain 1hr
in
rain 24hr
in
rain mn
in
humidity
%
barometer
mb
20260508222553 71 207 10.0 16.0 0.00 0.00 0.00 26 1002.1
20260508222054 70 259 5.0 16.0 0.00 0.00 0.00 30 1002.1
20260508221555 70 333 5.0 16.0 0.00 0.00 0.00 26 1002.3
20260508221057 71 224 9.0 16.0 0.00 0.00 0.00 25 1002.2
20260508220554 69 248 5.0 15.0 0.00 0.00 0.00 28 1002.2
20260508215552 70 244 9.0 14.0 0.00 0.00 0.00 26 1002.4
20260508215054 69 274 6.0 14.0 0.00 0.00 0.00 28 1002.5
20260508214605 70 183 8.0 14.0 0.00 0.00 0.00 25 1002.5
20260508214053 70 244 6.0 16.0 0.00 0.00 0.00 26 1002.5
20260508213553 70 241 9.0 16.0 0.00 0.00 0.00 24 1002.8
20260508213054 71 321 8.0 14.0 0.00 0.00 0.00 25 1002.8
20260508212553 70 278 6.0 12.0 0.00 0.00 0.00 24 1002.7
20260508212053 70 260 6.0 12.0 0.00 0.00 0.00 23 1002.8
20260508211555 70 240 4.0 7.0 0.00 0.00 0.00 27 1002.9
20260508211053 69 297 2.0 12.0 0.00 0.00 0.00 26 1003.0
20260508210553 69 275 4.0 12.0 0.00 0.00 0.00 28 1003.1
20260508210055 69 247 7.0 11.0 0.00 0.00 0.00 25 1003.3
20260508205557 70 255 4.0 12.0 0.00 0.00 0.00 24 1003.2
20260508205053 68 262 5.0 12.0 0.00 0.00 0.00 27 1003.4
20260508204557 68 236 6.0 11.0 0.00 0.00 0.00 27 1003.5
20260508204052 68 210 4.0 10.0 0.00 0.00 0.00 25 1003.6
20260508203552 69 172 4.0 12.0 0.00 0.00 0.00 27 1003.7
20260508203102 69 226 5.0 12.0 0.00 0.00 0.00 26 1003.7
20260508202553 69 213 4.0 8.0 0.00 0.00 0.00 26 1003.8
20260508202052 69 309 3.0 12.0 0.00 0.00 0.00 25 1003.9
20260508201557 69 317 4.0 12.0 0.00 0.00 0.00 26 1004.0
20260508201052 69 329 4.0 11.0 0.00 0.00 0.00 25 1004.0
20260508200552 70 238 7.0 11.0 0.00 0.00 0.00 24 1004.0
20260508200059 71 280 4.0 10.0 0.00 0.00 0.00 24 1004.0
20260508195556 70 213 3.0 12.0 0.00 0.00 0.00 25 1004.1
20260508195056 69 301 7.0 12.0 0.00 0.00 0.00 24 1004.2
20260508194616 68 259 5.0 11.0 0.00 0.00 0.00 25 1004.1
20260508194052 69 236 6.0 12.0 0.00 0.00 0.00 24 1004.3
20260508193556 69 269 5.0 12.0 0.00 0.00 0.00 27 1004.3
20260508193109 69 232 4.0 10.0 0.00 0.00 0.00 26 1004.3
20260508192557 69 285 5.0 13.0 0.00 0.00 0.00 28 1004.4
20260508192056 68 258 5.0 13.0 0.00 0.00 0.00 27 1004.5
20260508191602 69 255 5.0 10.0 0.00 0.00 0.00 23 1004.6
20260508191058 70 270 4.0 10.0 0.00 0.00 0.00 28 1004.8
20260508190557 70 252 3.0 12.0 0.00 0.00 0.00 27 1004.8
20260508190058 69 275 5.0 12.0 0.00 0.00 0.00 25 1004.8
20260508185556 69 213 7.0 12.0 0.00 0.00 0.00 28 1004.9
20260508185056 69 250 4.0 13.0 0.00 0.00 0.00 26 1005.0
20260508184608 69 314 5.0 13.0 0.00 0.00 0.00 27 1005.3
20260508184056 69 299 3.0 11.0 0.00 0.00 0.00 29 1005.2
20260508183556 69 326 4.0 12.0 0.00 0.00 0.00 25 1005.4
20260508183057 68 293 5.0 12.0 0.00 0.00 0.00 27 1005.4
20260508182555 68 300 6.0 12.0 0.00 0.00 0.00 26 1005.4
20260508182056 68 244 4.0 10.0 0.00 0.00 0.00 26 1005.3
20260508181601 68 314 5.0 10.0 0.00 0.00 0.00 28 1005.4
20260508181057 67 208 3.0 14.0 0.00 0.00 0.00 28 1005.5
20260508180554 67 258 7.0 15.0 0.00 0.00 0.00 27 1005.7
20260508180058 68 238 4.0 15.0 0.00 0.00 0.00 27 1005.6
20260508175555 68 221 3.0 11.0 0.00 0.00 0.00 27 1005.6
20260508175056 67 265 3.0 11.0 0.00 0.00 0.00 26 1005.8
20260508174559 67 261 5.0 9.0 0.00 0.00 0.00 25 1005.8
20260508174056 66 265 4.0 10.0 0.00 0.00 0.00 28 1005.9
20260508173600 66 238 4.0 10.0 0.00 0.00 0.00 26 1006.1
20260508173053 67 49 5.0 10.0 0.00 0.00 0.00 26 1006.2
20260508172557 66 256 4.0 9.0 0.00 0.00 0.00 24 1006.2
20260508172057 65 226 5.0 8.0 0.00 0.00 0.00 29 1006.5
20260508171554 65 254 4.0 13.0 0.00 0.00 0.00 28 1006.6
20260508171056 65 309 5.0 13.0 0.00 0.00 0.00 29 1006.6
20260508170557 65 193 5.0 13.0 0.00 0.00 0.00 28 1006.8
20260508170055 65 313 5.0 13.0 0.00 0.00 0.00 26 1007.0
20260508165600 65 328 5.0 13.0 0.00 0.00 0.00 27 1006.9
20260508165057 63 273 4.0 13.0 0.00 0.00 0.00 31 1007.0
20260508164557 63 283 7.0 13.0 0.00 0.00 0.00 30 1007.0
20260508164057 64 236 6.0 12.0 0.00 0.00 0.00 29 1007.1
20260508163555 63 231 6.0 12.0 0.00 0.00 0.00 30 1007.2
20260508163054 63 271 6.0 11.0 0.00 0.00 0.00 29 1007.3
20260508162600 64 259 6.0 11.0 0.00 0.00 0.00 29 1007.0
20260508162057 65 291 5.0 10.0 0.00 0.00 0.00 29 1007.1
20260508161557 64 250 4.0 10.0 0.00 0.00 0.00 31 1007.2
20260508161056 62 252 6.0 14.0 0.00 0.00 0.00 29 1007.3
20260508160552 62 269 5.0 14.0 0.00 0.00 0.00 28 1007.3
20260508160130 63 259 7.0 14.0 0.00 0.00 0.00 28 1007.3
20260508155557 64 262 4.0 13.0 0.00 0.00 0.00 29 1007.3
20260508155056 63 263 6.0 13.0 0.00 0.00 0.00 30 1007.3
20260508154559 63 260 6.0 11.0 0.00 0.00 0.00 28 1007.3
20260508154056 62 262 6.0 10.0 0.00 0.00 0.00 28 1007.4
20260508153556 62 252 5.0 10.0 0.00 0.00 0.00 30 1007.4
20260508153058 62 259 4.0 11.0 0.00 0.00 0.00 30 1007.4
20260508152555 62 260 5.0 12.0 0.00 0.00 0.00 31 1007.5
20260508152056 63 257 4.0 14.0 0.00 0.00 0.00 30 1007.5
20260508151600 63 210 5.0 14.0 0.00 0.00 0.00 31 1007.6
20260508151056 62 210 5.0 18.0 0.00 0.00 0.00 31 1007.6
20260508150555 62 221 5.0 18.0 0.00 0.00 0.00 30 1007.7
20260508150100 62 264 6.0 18.0 0.00 0.00 0.00 32 1007.8
20260508145555 61 209 4.0 16.0 0.00 0.00 0.00 31 1007.9
20260508145052 61 235 5.0 16.0 0.00 0.00 0.00 32 1008.0
20260508144559 61 245 5.0 16.0 0.00 0.00 0.00 32 1008.0
20260508144056 60 290 6.0 17.0 0.00 0.00 0.00 33 1008.0
20260508143555 60 237 7.0 17.0 0.00 0.00 0.00 32 1008.1
20260508143105 59 191 8.0 17.0 0.00 0.00 0.00 33 1008.1
20260508142556 59 184 7.0 19.0 0.00 0.00 0.00 33 1008.1
20260508142056 60 158 6.0 19.0 0.00 0.00 0.00 31 1008.1
20260508141605 60 206 7.0 19.0 0.00 0.00 0.00 31 1008.2
20260508141056 59 95 8.0 19.0 0.00 0.00 0.00 32 1008.3
20260508140557 58 245 9.0 17.0 0.00 0.00 0.00 32 1008.4
20260508140057 58 187 7.0 16.0 0.00 0.00 0.00 33 1008.3
20260508135555 57 222 7.0 15.0 0.00 0.00 0.00 34 1008.5
20260508135057 56 207 6.0 13.0 0.00 0.00 0.00 35 1008.5
20260508134555 56 271 5.0 15.0 0.00 0.00 0.00 37 1008.6
20260508134055 55 77 7.0 15.0 0.00 0.00 0.00 35 1008.6
20260508133558 54 188 7.0 15.0 0.00 0.00 0.00 37 1008.7
20260508133101 53 223 6.0 13.0 0.00 0.00 0.00 38 1008.6
20260508132552 53 91 7.0 12.0 0.00 0.00 0.00 38 1008.7
20260508132056 52 155 7.0 14.0 0.00 0.00 0.00 38 1008.7
20260508131558 51 210 8.0 15.0 0.00 0.00 0.00 38 1008.7
20260508131052 51 101 6.0 15.0 0.00 0.00 0.00 38 1008.7
20260508130552 51 281 6.0 15.0 0.00 0.00 0.00 38 1008.8
20260508125557 51 49 9.0 15.0 0.00 0.00 0.00 38 1008.7
20260508125055 51 114 8.0 15.0 0.00 0.00 0.00 39 1008.7
20260508124559 50 126 6.0 11.0 0.00 0.00 0.00 40 1008.7
20260508124056 49 197 6.0 11.0 0.00 0.00 0.00 41 1008.7
20260508123556 49 186 5.0 11.0 0.00 0.00 0.00 43 1008.7
20260508123058 48 188 6.0 12.0 0.00 0.00 0.00 43 1008.7
20260508122555 47 221 7.0 12.0 0.00 0.00 0.00 43 1008.7
20260508122052 47 212 6.0 11.0 0.00 0.00 0.00 45 1008.7
20260508121609 46 202 6.0 11.0 0.00 0.00 0.00 45 1008.7
20260508121056 46 188 5.0 11.0 0.00 0.00 0.00 46 1008.7
20260508120555 45 270 4.0 10.0 0.00 0.00 0.00 46 1008.7
20260508120100 45 155 5.0 10.0 0.00 0.00 0.00 46 1008.6
20260508115556 45 193 4.0 9.0 0.00 0.00 0.00 46 1008.6
20260508115057 44 141 5.0 9.0 0.00 0.00 0.00 47 1008.6
20260508114614 44 187 3.0 10.0 0.00 0.00 0.00 48 1008.6
20260508114057 43 189 3.0 10.0 0.00 0.00 0.00 48 1008.5
20260508113553 42 165 3.0 9.0 0.00 0.00 0.00 49 1008.6
20260508113107 42 193 4.0 9.0 0.00 0.00 0.00 50 1008.6
20260508112555 41 191 3.0 7.0 0.00 0.00 0.00 50 1008.6
20260508112055 41 196 3.0 8.0 0.00 0.00 0.00 50 1008.7
20260508111604 40 112 3.0 8.0 0.00 0.00 0.00 51 1008.8
20260508111059 40 1 2.0 7.0 0.00 0.00 0.00 51 1008.6
20260508110553 39 204 2.0 7.0 0.00 0.00 0.00 52 1008.7
20260508105556 39 241 3.0 8.0 0.00 0.00 0.00 51 1008.6
20260508105055 39 201 3.0 8.0 0.00 0.00 0.00 51 1008.6
20260508104556 39 122 2.0 8.0 0.00 0.00 0.00 51 1008.6
20260508104052 39 92 2.0 8.0 0.00 0.00 0.00 51 1008.6
20260508103555 39 187 3.0 8.0 0.00 0.00 0.00 50 1008.6
20260508103103 39 118 3.0 8.0 0.00 0.00 0.00 50 1008.6
20260508102552 39 127 3.0 8.0 0.00 0.00 0.00 51 1008.6
20260508102055 39 97 3.0 7.0 0.00 0.00 0.00 51 1008.5
20260508101555 39 110 2.0 6.0 0.00 0.00 0.00 51 1008.6
20260508101056 39 113 2.0 8.0 0.00 0.00 0.00 51 1008.6
20260508100557 39 198 1.0 8.0 0.00 0.00 0.00 51 1008.7
20260508100056 39 141 2.0 7.0 0.00 0.00 0.00 51 1008.7
20260508095556 38 179 1.0 7.0 0.00 0.00 0.00 52 1008.6
20260508095058 38 205 2.0 7.0 0.00 0.00 0.00 52 1008.7
20260508094606 38 127 1.0 6.0 0.00 0.00 0.00 52 1008.8
20260508094055 38 118 2.0 6.0 0.00 0.00 0.00 52 1008.9
20260508093555 38 122 2.0 6.0 0.00 0.00 0.00 51 1008.9
20260508093056 38 100 2.0 7.0 0.00 0.00 0.00 51 1008.8
20260508092555 39 307 2.0 7.0 0.00 0.00 0.00 51 1008.7
20260508092055 39 173 2.0 8.0 0.00 0.00 0.00 50 1008.8
20260508091558 39 139 2.0 8.0 0.00 0.00 0.00 50 1008.8
20260508091052 39 160 3.0 8.0 0.00 0.00 0.00 49 1008.8
20260508090554 39 169 3.0 8.0 0.00 0.00 0.00 48 1008.9
20260508090058 39 149 2.0 6.0 0.00 0.00 0.00 48 1008.8
20260508085555 39 144 2.0 6.0 0.00 0.00 0.00 49 1008.9
20260508085053 39 119 2.0 7.0 0.00 0.00 0.00 49 1008.9
20260508084557 39 183 2.0 7.0 0.00 0.00 0.00 48 1008.9
20260508084054 40 77 2.0 5.0 0.00 0.00 0.00 48 1008.9
20260508083553 40 206 1.0 5.0 0.00 0.00 0.00 48 1008.8
20260508083139 39 238 1.0 6.0 0.00 0.00 0.00 49 1008.8
20260508082553 40 221 2.0 6.0 0.00 0.00 0.00 49 1008.9
20260508082053 40 200 2.0 6.0 0.00 0.00 0.00 48 1009.0
20260508081556 40 231 2.0 6.0 0.00 0.00 0.00 47 1009.0
20260508081053 40 0 2.0 7.0 0.00 0.00 0.00 48 1009.0
20260508080555 40 252 2.0 7.0 0.00 0.00 0.00 47 1009.1
20260508080059 41 218 2.0 8.0 0.00 0.00 0.00 47 1009.2
20260508075554 41 191 2.0 8.0 0.00 0.00 0.00 46 1009.2
20260508075054 41 196 2.0 6.0 0.00 0.00 0.00 46 1009.3
20260508074553 41 128 2.0 6.0 0.00 0.00 0.00 46 1009.2
20260508074054 41 178 2.0 7.0 0.00 0.00 0.00 46 1009.3
20260508073554 41 225 2.0 7.0 0.00 0.00 0.00 46 1009.3
20260508073058 42 245 3.0 7.0 0.00 0.00 0.00 45 1009.4
20260508072553 42 181 2.0 7.0 0.00 0.00 0.00 45 1009.3
20260508072053 42 259 2.0 7.0 0.00 0.00 0.00 45 1009.4
20260508071556 43 201 2.0 7.0 0.00 0.00 0.00 44 1009.4
20260508071053 43 255 3.0 7.0 0.00 0.00 0.00 44 1009.5
20260508070553 43 207 3.0 7.0 0.00 0.00 0.00 43 1009.5
20260508065552 43 83 2.0 8.0 0.00 0.00 0.00 43 1009.5
20260508065056 43 220 2.0 8.0 0.00 0.00 0.00 43 1009.5
20260508064608 43 132 2.0 8.0 0.00 0.00 0.00 43 1009.6
20260508064055 43 185 2.0 7.0 0.00 0.00 0.00 43 1009.7
20260508063554 44 172 2.0 6.0 0.00 0.00 0.00 42 1009.7
20260508063055 44 168 2.0 6.0 0.00 0.00 0.00 42 1009.8
20260508062553 44 194 1.0 6.0 0.00 0.00 0.00 42 1009.7
20260508062053 44 211 2.0 7.0 0.00 0.00 0.00 42 1009.8
20260508061557 44 177 2.0 7.0 0.00 0.00 0.00 42 1010.0
20260508061055 44 153 1.0 5.0 0.00 0.00 0.00 42 1010.0
20260508060556 44 126 1.0 5.0 0.00 0.00 0.00 42 1009.9
20260508060106 44 214 1.0 5.0 0.00 0.00 0.00 42 1009.9
20260508055554 44 174 1.0 4.0 0.00 0.00 0.00 42 1009.9
20260508055055 44 188 1.0 4.0 0.00 0.00 0.00 43 1009.9
20260508054603 43 179 1.0 4.0 0.00 0.00 0.00 44 1010.1
20260508054057 43 218 0.0 2.0 0.00 0.00 0.00 44 1010.0
20260508053554 43 0 0.0 2.0 0.00 0.00 0.00 45 1010.1
20260508053102 42 0 0.0 1.0 0.00 0.00 0.00 45 1010.1
20260508052553 43 0 0.0 1.0 0.00 0.00 0.00 46 1010.1
20260508052054 43 147 0.0 1.0 0.00 0.00 0.00 45 1010.2
20260508051554 43 0 0.0 1.0 0.00 0.00 0.00 45 1010.2
20260508051054 42 0 0.0 3.0 0.00 0.00 0.00 46 1010.1
20260508050554 42 0 0.0 3.0 0.00 0.00 0.00 46 1010.2
20260508050059 42 327 0.0 1.0 0.00 0.00 0.00 47 1010.1
20260508045554 41 321 0.0 1.0 0.00 0.00 0.00 48 1010.2
20260508045056 40 360 0.0 1.0 0.00 0.00 0.00 50 1010.2
20260508044556 39 0 0.0 1.0 0.00 0.00 0.00 55 1010.4
20260508044056 39 0 0.0 1.0 0.00 0.00 0.00 55 1010.3
20260508043557 39 0 0.0 1.0 0.00 0.00 0.00 55 1010.4
20260508043055 40 0 0.0 1.0 0.00 0.00 0.00 53 1010.4
20260508042557 38 249 0.0 1.0 0.00 0.00 0.00 54 1010.5
20260508042100 38 233 0.0 1.0 0.00 0.00 0.00 57 1010.5
20260508041604 37 236 0.0 1.0 0.00 0.00 0.00 60 1010.5
20260508041057 34 0 0.0 0.0 0.00 0.00 0.00 64 1010.4
20260508040557 34 0 0.0 0.0 0.00 0.00 0.00 62 1010.5
20260508040113 34 0 0.0 0.0 0.00 0.00 0.00 62 1010.5
20260508035556 34 0 0.0 0.0 0.00 0.00 0.00 62 1010.5
20260508035057 34 0 0.0 0.0 0.00 0.00 0.00 62 1010.6
20260508034557 34 0 0.0 1.0 0.00 0.00 0.00 61 1010.6
20260508034056 34 0 0.0 1.0 0.00 0.00 0.00 62 1010.7
20260508033559 34 0 0.0 0.0 0.00 0.00 0.00 63 1010.6
20260508033102 35 0 0.0 0.0 0.00 0.00 0.00 60 1010.7
20260508032554 35 0 0.0 0.0 0.00 0.00 0.00 61 1010.7
20260508032056 35 0 0.0 0.0 0.00 0.00 0.00 64 1010.6
20260508031556 35 0 0.0 0.0 0.00 0.00 0.00 63 1010.7
20260508031053 34 0 0.0 0.0 0.00 0.00 0.00 67 1010.6
20260508030557 34 0 0.0 0.0 0.00 0.00 0.00 65 1010.6
20260508030131 34 0 0.0 0.0 0.00 0.00 0.00 64 1010.6
20260508025553 35 0 0.0 0.0 0.00 0.00 0.00 63 1010.5
20260508025056 36 0 0.0 0.0 0.00 0.00 0.00 61 1010.5
20260508024606 36 0 0.0 0.0 0.00 0.00 0.00 59 1010.5
20260508024057 37 0 0.0 0.0 0.00 0.00 0.00 58 1010.4
20260508023557 38 0 0.0 0.0 0.00 0.00 0.00 57 1010.3
20260508023058 39 0 0.0 0.0 0.00 0.00 0.00 53 1010.2
20260508022556 40 0 0.0 0.0 0.00 0.00 0.00 51 1010.3
20260508022054 41 0 0.0 0.0 0.00 0.00 0.00 47 1010.2
20260508021559 42 0 0.0 0.0 0.00 0.00 0.00 46 1010.2
20260508021058 43 0 0.0 0.0 0.00 0.00 0.00 42 1010.0
20260508020553 43 0 0.0 0.0 0.00 0.00 0.00 42 1010.0
20260508020100 44 0 0.0 0.0 0.00 0.00 0.00 40 1009.9
20260508015557 44 0 0.0 0.0 0.00 0.00 0.00 38 1009.9
20260508015056 45 0 0.0 0.0 0.00 0.00 0.00 38 1009.8
20260508014559 45 0 0.0 0.0 0.00 0.00 0.00 38 1009.8
20260508014056 46 0 0.0 0.0 0.00 0.00 0.00 36 1009.7
20260508013553 47 0 0.0 0.0 0.00 0.00 0.00 34 1009.7
20260508013057 48 0 0.0 0.0 0.00 0.00 0.00 34 1009.8
20260508012553 48 0 0.0 0.0 0.00 0.00 0.00 35 1009.7
20260508012056 49 0 0.0 0.0 0.00 0.00 0.00 35 1009.7
20260508011609 50 0 0.0 0.0 0.00 0.00 0.00 35 1009.6
20260508011053 50 0 0.0 0.0 0.00 0.00 0.00 34 1009.6
20260508010559 51 0 0.0 0.0 0.00 0.00 0.00 33 1009.5
20260508010106 52 0 0.0 0.0 0.00 0.00 0.00 32 1009.6
20260508005557 52 0 0.0 1.0 0.00 0.00 0.00 32 1009.5
20260508005056 52 0 0.0 1.0 0.00 0.00 0.00 31 1009.5
20260508004604 52 0 0.0 1.0 0.00 0.00 0.00 32 1009.5
20260508004057 53 0 0.0 1.0 0.00 0.00 0.00 32 1009.6
20260508003556 53 0 0.0 2.0 0.00 0.00 0.00 32 1009.5
20260508003110 54 0 0.0 2.0 0.00 0.00 0.00 30 1009.5
20260508002556 54 0 0.0 2.0 0.00 0.00 0.00 30 1009.6
20260508002053 55 0 0.0 3.0 0.00 0.00 0.00 28 1009.5
20260508001556 56 0 0.0 5.0 0.00 0.00 0.00 28 1009.5
20260508001057 57 260 2.0 5.0 0.00 0.00 0.00 25 1009.6
20260508000556 57 236 0.0 3.0 0.00 0.00 0.00 26 1009.7
20260508000056 57 0 0.0 3.0 0.00 0.00 0.00 28 1009.7
20260507235553 57 0 2.0 5.0 0.00 0.00 0.00 26 1009.7
20260507235056 57 258 2.0 5.0 0.00 0.00 0.00 27 1009.8
20260507234559 57 290 2.0 4.0 0.00 0.00 0.00 27 1009.8
20260507234056 57 277 2.0 8.0 0.00 0.00 0.00 27 1009.8
20260507233557 57 292 2.0 8.0 0.00 0.00 0.00 26 1009.8
20260507233100 57 235 2.0 8.0 0.00 0.00 0.00 26 1009.9
20260507232552 58 304 3.0 5.0 0.00 0.00 0.00 26 1009.9
20260507232057 58 278 1.0 6.0 0.00 0.00 0.00 25 1009.9
20260507231615 58 322 2.0 6.0 0.00 0.00 0.00 25 1009.9
20260507231056 58 310 1.0 5.0 0.00 0.00 0.00 27 1009.9
20260507230557 58 310 1.0 6.0 0.00 0.00 0.00 26 1009.9
20260507230100 58 312 0.0 6.0 0.00 0.00 0.00 25 1009.9
20260507225558 58 0 3.0 8.0 0.00 0.00 0.00 27 1010.0
20260507225058 58 293 2.0 8.0 0.00 0.00 0.00 26 1010.0
20260507224606 58 310 0.0 4.0 0.00 0.00 0.00 29 1010.0
20260507224054 58 315 1.0 4.0 0.00 0.00 0.00 26 1010.0
20260507223553 58 289 1.0 6.0 0.00 0.00 0.00 28 1010.1
20260507223057 57 273 2.0 6.0 0.00 0.00 0.00 25 1010.1